Tracking 30417 objects as of 16-May-2025
HD Live streaming from Space Station
objects crossing your sky now

COSMOS 1275 DEB

Track COSMOS 1275 DEB now!
10-day predictions


NORAD ID: 12729
Int'l Code: 1981-053BW
Perigee: 947.5 km
Apogee: 1,138.3 km
Inclination: 83.0 °
Period: 105.9 minutes
Semi major axis: 7413 km
RCS: 0.0622 m2 (small)
Launch date: June 4, 1981
Source: Commonwealth of Independent States (former USSR) (CIS)
Launch site: PLESETSK MISSILE AND SPACE COMPLEX (PKMTR)

Note: This is SATELLITE DEBRIS
Your satellite tracking list
Your tracking list is empty




NASA's NSSDC Master Catalog

Two Line Element Set (TLE):
1 12729U 81053BW  25136.12225936  .00000537  00000-0  66266-3 0  9999
2 12729  83.0479  21.6378 0128652 135.3607 343.2547 13.59978761 25674
Source of the keplerian elements: AFSPC